DW5330 Weather Reports


time (UTC)temp
C
wind
direction
speed
KPH
gust
KPH
rain 1hr
cm
rain 24hr
cm
rain mn
cm
humidity
%
barometer
mb
20260505084007 19 176 0.0 3.2 0.00 0.15 0.00 57 1019.4
20260505083506 19 170 0.0 4.8 0.00 0.15 0.00 56 1019.3
20260505082507 19 159 1.6 3.2 0.00 0.15 0.00 56 1019.2
20260505082006 19 187 1.6 3.2 0.00 0.15 0.00 56 1019.2
20260505081006 19 166 3.2 4.8 0.00 0.15 0.00 56 1019.0
20260505075006 19 178 4.8 8.0 0.00 0.15 0.00 55 1018.6
20260505074507 19 175 4.8 11.3 0.00 0.15 0.00 54 1018.5
20260505074006 19 166 4.8 9.7 0.00 0.15 0.00 54 1018.4
20260505073506 19 171 4.8 12.9 0.00 0.15 0.00 53 1018.3
20260505073006 20 174 8.0 11.3 0.00 0.15 0.00 53 1018.3
20260505072506 20 175 4.8 9.7 0.00 0.15 0.00 54 1018.3
20260505071006 20 177 1.6 4.8 0.00 0.15 0.00 54 1018.1
20260505064506 20 173 8.0 14.5 0.00 0.15 0.00 53 1017.6
20260505063506 21 180 4.8 11.3 0.00 0.15 0.00 52 1017.5
20260505063006 21 177 3.2 12.9 0.00 0.15 0.00 52 1017.4
20260505062507 21 169 4.8 12.9 0.00 0.15 0.00 52 1017.4
20260505062006 21 170 6.4 11.3 0.00 0.15 0.00 53 1017.3
20260505061507 21 171 4.8 11.3 0.00 0.15 0.00 53 1017.3
20260505061006 21 169 8.0 12.9 0.00 0.15 0.00 53 1017.3
20260505060506 22 173 3.2 9.7 0.00 0.15 0.00 52 1017.3
20260505053505 24 91 1.6 4.8 0.00 0.15 0.00 38 1017.1
20260505053006 24 310 0.0 1.6 0.00 0.15 0.00 37 1017.1
20260505052507 23 282 0.0 3.2 0.00 0.15 0.00 38 1017.1
20260505052006 23 170 0.0 0.0 0.00 0.15 0.00 39 1017.1
20260505051506 24 170 1.6 8.0 0.00 0.15 0.00 39 1017.1
20260505051006 24 300 3.2 9.7 0.00 0.15 0.00 39 1017.0
20260505050506 25 262 1.6 3.2 0.00 0.15 0.00 37 1016.9
20260505041505 22 173 1.6 4.8 0.00 0.15 0.00 42 1016.6
20260505041006 22 107 1.6 4.8 0.00 0.15 0.00 44 1016.7
20260505040507 22 123 1.6 4.8 0.00 0.15 0.00 44 1016.6
20260505035507 22 186 1.6 4.8 0.00 0.15 0.00 43 1016.7
20260505035006 22 101 1.6 3.2 0.00 0.15 0.00 44 1016.7
20260505034505 22 124 0.0 3.2 0.00 0.15 0.00 44 1016.7
20260505034006 23 217 1.6 4.8 0.00 0.15 0.00 44 1016.9
20260505033005 23 198 1.6 4.8 0.00 0.15 0.00 43 1016.9
20260505031507 22 333 1.6 8.0 0.00 0.15 0.00 45 1017.0
20260505024505 22 131 1.6 4.8 0.00 0.15 0.00 47 1017.2
20260505024006 22 172 1.6 4.8 0.00 0.18 0.00 47 1017.3
20260505022006 21 183 1.6 4.8 0.00 0.20 0.00 48 1017.4
20260505021005 21 334 4.8 12.9 0.00 0.20 0.00 49 1017.4
20260505020506 21 207 1.6 4.8 0.00 0.20 0.00 49 1017.4
20260505014505 20 140 1.6 12.9 0.00 0.23 0.00 51 1017.6
20260505014005 20 343 4.8 11.3 0.00 0.23 0.00 52 1017.7
20260505013005 20 149 1.6 8.0 0.00 0.23 0.00 52 1017.7
20260505012005 20 159 0.0 4.8 0.00 0.23 0.00 54 1017.9
20260505011005 20 134 1.6 9.7 0.00 0.23 0.00 54 1018.1
20260505005007 20 155 3.2 4.8 0.00 0.23 0.00 54 1018.4
20260505004505 20 118 1.6 4.8 0.00 0.23 0.00 54 1018.5
20260505004005 20 160 3.2 9.7 0.00 0.23 0.00 55 1018.6
20260505003505 20 146 3.2 8.0 0.00 0.23 0.00 54 1018.5
20260505002506 19 99 1.6 4.8 0.00 0.23 0.00 54 1018.6
20260505001005 19 227 3.2 9.7 0.00 0.23 0.00 55 1018.6
20260505000505 20 191 0.0 4.8 0.00 0.23 0.00 53 1018.6
20260505000004 19 182 1.6 4.8 0.00 0.23 0.00 54 1018.5
20260504235505 19 119 3.2 11.3 0.00 0.23 0.00 55 1018.4
20260504235006 19 167 3.2 16.1 0.00 0.23 0.00 54 1018.6
20260504234505 19 181 3.2 4.8 0.00 0.23 0.00 54 1018.6
20260504234005 19 265 3.2 8.0 0.00 0.23 0.00 55 1018.6
20260504233505 19 167 4.8 11.3 0.00 0.23 0.00 55 1018.6
20260504232505 18 158 3.2 9.7 0.00 0.23 0.00 56 1018.6
20260504232005 18 169 3.2 9.7 0.00 0.23 0.00 56 1018.7
20260504231505 18 173 3.2 9.7 0.00 0.23 0.00 56 1018.7
20260504230506 19 183 4.8 14.5 0.00 0.23 0.00 56 1018.7
20260504225005 19 235 1.6 4.8 0.00 0.23 0.00 54 1018.8
20260504223005 19 151 1.6 3.2 0.00 0.23 0.00 55 1018.6
20260504215005 17 233 1.6 4.8 0.00 0.25 0.00 62 1018.6
20260504214506 17 159 1.6 4.8 0.00 0.25 0.00 62 1018.5
20260504213005 17 160 1.6 3.2 0.00 0.25 0.00 66 1018.1
20260504212506 17 174 1.6 3.2 0.00 0.25 0.00 67 1018.0
20260504204004 15 173 1.6 4.8 0.00 0.25 0.00 72 1017.4
20260504203506 15 125 1.6 3.2 0.00 0.25 0.00 71 1017.4
20260504203005 15 150 1.6 4.8 0.00 0.25 0.00 71 1017.2
20260504202505 15 178 0.0 1.6 0.00 0.25 0.00 71 1017.2
20260504195005 15 179 1.6 4.8 0.00 0.25 0.00 74 1016.9
20260504194005 15 195 0.0 3.2 0.00 0.25 0.00 73 1016.9
20260504193005 15 151 0.0 3.2 0.00 0.25 0.00 72 1016.7
20260504190504 16 179 1.6 3.2 0.00 0.25 0.00 72 1016.6
20260504185505 16 162 1.6 4.8 0.00 0.25 0.00 72 1016.5
20260504184005 16 153 1.6 4.8 0.00 0.25 0.00 72 1016.2
20260504180505 16 142 1.6 4.8 0.00 0.25 0.00 69 1016.0
20260504180005 16 173 3.2 4.8 0.00 0.25 0.00 70 1015.9
20260504175504 16 153 1.6 3.2 0.00 0.25 0.00 70 1015.9
20260504175005 16 142 1.6 4.8 0.00 0.25 0.00 70 1015.9
20260504173504 17 172 1.6 4.8 0.00 0.25 0.00 68 1016.0
20260504172005 17 201 3.2 4.8 0.00 0.25 0.00 68 1016.1
20260504171005 17 169 1.6 3.2 0.00 0.25 0.00 68 1016.1
20260504150506 18 151 0.0 3.2 0.00 0.25 0.00 74 1016.4
20260504141007 18 204 1.6 4.8 0.13 0.25 0.00 79 1016.1
20260504130506 20 146 0.0 3.2 0.00 0.30 0.13 76 1016.1
20260504100506 21 301 8.0 14.5 0.03 0.43 0.13 70 1015.1